| time (UTC) | temp F | wind direction | speed MPH | gust MPH | rain 1hr in | rain 24hr in | rain mn in | humidity % | barometer mb |
| 20260906133204 | 73 | 73 | 2.0 | 5.0 | 0.00 | 0.00 | 0.00 | 77 | 998.6 |
| 20260906131703 | 74 | 59 | 1.0 | 3.0 | 0.00 | 0.00 | 0.00 | 76 | 998.6 |
| 20260906131204 | 73 | 56 | 0.0 | 3.0 | 0.00 | 0.00 | 0.00 | 78 | 998.6 |
| 20260906130204 | 73 | 60 | 0.0 | 3.0 | 0.00 | 0.00 | 0.00 | 78 | 998.5 |
| 20260906123704 | 67 | 56 | 0.0 | 0.0 | 0.00 | 0.00 | 0.00 | 89 | 998.4 |
| 20260906123204 | 66 | 56 | 0.0 | 0.0 | 0.00 | 0.00 | 0.00 | 92 | 998.4 |
| 20260906121704 | 64 | 56 | 0.0 | 0.0 | 0.00 | 0.00 | 0.00 | 93 | 998.2 |
| 20260906121203 | 64 | 56 | 0.0 | 0.0 | 0.00 | 0.00 | 0.00 | 93 | 998.1 |
| 20260906120704 | 64 | 56 | 0.0 | 0.0 | 0.00 | 0.00 | 0.00 | 93 | 998.0 |
| 20260906120204 | 64 | 56 | 0.0 | 0.0 | 0.00 | 0.00 | 0.00 | 93 | 997.9 |
| 20260906114704 | 64 | 56 | 0.0 | 0.0 | 0.00 | 0.00 | 0.00 | 91 | 997.8 |
| 20260906113704 | 65 | 56 | 0.0 | 0.0 | 0.00 | 0.00 | 0.00 | 91 | 997.6 |
| 20260906113204 | 66 | 56 | 0.0 | 0.0 | 0.00 | 0.00 | 0.00 | 90 | 997.6 |
| 20260906111704 | 67 | 56 | 0.0 | 0.0 | 0.00 | 0.00 | 0.00 | 89 | 997.5 |
| 20260906111205 | 67 | 56 | 0.0 | 2.0 | 0.00 | 0.00 | 0.00 | 89 | 997.4 |
| 20260906110704 | 67 | 56 | 0.0 | 2.0 | 0.00 | 0.00 | 0.00 | 88 | 997.3 |
| 20260906110205 | 67 | 65 | 1.0 | 3.0 | 0.00 | 0.00 | 0.00 | 88 | 997.2 |
| 20260906104705 | 68 | 72 | 1.0 | 2.0 | 0.00 | 0.00 | 0.00 | 87 | 997.1 |
| 20260906103705 | 68 | 46 | 1.0 | 2.0 | 0.00 | 0.00 | 0.00 | 87 | 997.2 |
| 20260906103205 | 68 | 92 | 1.0 | 2.0 | 0.00 | 0.00 | 0.00 | 88 | 997.2 |
| 20260906101704 | 68 | 56 | 1.0 | 3.0 | 0.00 | 0.00 | 0.00 | 87 | 997.3 |
| 20260906101205 | 68 | 71 | 1.0 | 3.0 | 0.00 | 0.00 | 0.00 | 87 | 997.2 |
| 20260906100705 | 68 | 66 | 1.0 | 3.0 | 0.00 | 0.00 | 0.00 | 87 | 997.1 |
| 20260906100204 | 68 | 107 | 2.0 | 3.0 | 0.00 | 0.00 | 0.00 | 88 | 997.1 |
| 20260906094704 | 67 | 70 | 3.0 | 6.0 | 0.00 | 0.00 | 0.00 | 88 | 997.1 |
| 20260906094204 | 67 | 90 | 2.0 | 3.0 | 0.00 | 0.00 | 0.00 | 88 | 997.0 |
| 20260906093704 | 67 | 80 | 2.0 | 3.0 | 0.00 | 0.00 | 0.00 | 89 | 997.0 |
| 20260906093204 | 67 | 71 | 2.0 | 3.0 | 0.00 | 0.00 | 0.00 | 89 | 997.0 |
| 20260906091703 | 67 | 91 | 1.0 | 3.0 | 0.00 | 0.00 | 0.00 | 90 | 996.9 |
| 20260906091205 | 67 | 100 | 1.0 | 3.0 | 0.00 | 0.00 | 0.00 | 90 | 996.9 |
| 20260906090703 | 67 | 90 | 1.0 | 3.0 | 0.00 | 0.00 | 0.00 | 91 | 996.8 |
| 20260906090203 | 67 | 80 | 1.0 | 3.0 | 0.00 | 0.00 | 0.00 | 92 | 996.8 |
| 20260906084204 | 65 | 92 | 1.0 | 3.0 | 0.00 | 0.00 | 0.00 | 96 | 996.7 |
| 20260906083703 | 65 | 94 | 1.0 | 3.0 | 0.00 | 0.00 | 0.00 | 98 | 996.7 |
| 20260906081704 | 61 | 311 | 0.0 | 1.0 | 0.00 | 0.00 | 0.00 | 97 | 996.7 |
| 20260906081204 | 61 | 46 | 0.0 | 0.0 | 0.00 | 0.00 | 0.00 | 97 | 996.7 |
| 20260906080203 | 61 | 46 | 0.0 | 0.0 | 0.00 | 0.00 | 0.00 | 96 | 996.6 |
| 20260906074703 | 61 | 46 | 0.0 | 0.0 | 0.00 | 0.00 | 0.00 | 97 | 996.5 |
| 20260906074204 | 61 | 46 | 0.0 | 0.0 | 0.00 | 0.00 | 0.00 | 97 | 996.5 |
| 20260906073704 | 62 | 46 | 0.0 | 0.0 | 0.00 | 0.00 | 0.00 | 97 | 996.5 |
| 20260906073203 | 62 | 46 | 0.0 | 0.0 | 0.00 | 0.00 | 0.00 | 97 | 996.4 |
| 20260906071705 | 62 | 46 | 0.0 | 0.0 | 0.00 | 0.00 | 0.00 | 97 | 996.4 |
| 20260906071204 | 62 | 46 | 0.0 | 0.0 | 0.00 | 0.00 | 0.00 | 97 | 996.4 |
| 20260906070704 | 61 | 46 | 0.0 | 0.0 | 0.00 | 0.00 | 0.00 | 97 | 996.3 |
| 20260906064204 | 61 | 46 | 0.0 | 1.0 | 0.00 | 0.00 | 0.00 | 97 | 996.0 |
| 20260906063205 | 60 | 28 | 0.0 | 1.0 | 0.00 | 0.00 | 0.00 | 96 | 996.0 |
| 20260906061203 | 61 | 40 | 0.0 | 0.0 | 0.00 | 0.00 | 0.00 | 96 | 996.1 |
| 20260906060703 | 61 | 40 | 0.0 | 0.0 | 0.00 | 0.00 | 0.00 | 96 | 996.1 |
| 20260906060203 | 61 | 40 | 0.0 | 1.0 | 0.00 | 0.00 | 0.00 | 96 | 996.1 |
| 20260906054704 | 60 | 24 | 0.0 | 0.0 | 0.00 | 0.00 | 0.00 | 96 | 996.0 |
| 20260906054205 | 60 | 24 | 0.0 | 0.0 | 0.00 | 0.00 | 0.00 | 96 | 996.0 |
| 20260906053704 | 60 | 24 | 0.0 | 0.0 | 0.00 | 0.00 | 0.00 | 96 | 996.0 |
| 20260906053203 | 60 | 24 | 0.0 | 0.0 | 0.00 | 0.00 | 0.00 | 96 | 995.8 |
| 20260906051704 | 60 | 24 | 1.0 | 1.0 | 0.00 | 0.00 | 0.00 | 96 | 995.8 |
| 20260906051204 | 60 | 29 | 0.0 | 0.0 | 0.00 | 0.00 | 0.00 | 96 | 995.8 |
| 20260906050703 | 60 | 29 | 0.0 | 0.0 | 0.00 | 0.00 | 0.00 | 96 | 995.8 |
| 20260906050204 | 60 | 29 | 0.0 | 0.0 | 0.00 | 0.00 | 0.00 | 96 | 995.9 |
| 20260906044704 | 61 | 30 | 0.0 | 1.0 | 0.00 | 0.66 | 0.00 | 96 | 995.9 |
| 20260906044203 | 61 | 55 | 0.0 | 0.0 | 0.00 | 0.66 | 0.00 | 96 | 995.9 |
| 20260906043703 | 61 | 55 | 0.0 | 0.0 | 0.00 | 0.66 | 0.00 | 96 | 995.9 |
| 20260906041704 | 61 | 55 | 0.0 | 0.0 | 0.00 | 0.66 | 0.00 | 95 | 995.8 |
| 20260906041205 | 61 | 55 | 0.0 | 0.0 | 0.00 | 0.66 | 0.00 | 95 | 995.8 |
| 20260906040704 | 62 | 55 | 0.0 | 0.0 | 0.00 | 0.66 | 0.00 | 95 | 995.7 |
| 20260906040204 | 62 | 55 | 0.0 | 0.0 | 0.00 | 0.66 | 0.00 | 95 | 995.6 |
| 20260906034204 | 63 | 55 | 0.0 | 2.0 | 0.00 | 0.66 | 0.00 | 95 | 995.6 |
| 20260906033704 | 63 | 50 | 1.0 | 2.0 | 0.00 | 0.66 | 0.00 | 95 | 995.5 |
| 20260906033203 | 63 | 45 | 1.0 | 2.0 | 0.00 | 0.66 | 0.00 | 95 | 995.5 |
| 20260906031704 | 63 | 19 | 1.0 | 1.0 | 0.00 | 0.66 | 0.00 | 95 | 995.5 |
| 20260906030703 | 63 | 48 | 1.0 | 2.0 | 0.00 | 0.66 | 0.00 | 94 | 995.4 |
| 20260906024704 | 64 | 40 | 0.0 | 2.0 | 0.00 | 0.66 | 0.00 | 94 | 995.5 |
| 20260906024204 | 64 | 39 | 1.0 | 2.0 | 0.00 | 0.66 | 0.00 | 94 | 995.5 |
| 20260906023705 | 64 | 22 | 0.0 | 2.0 | 0.00 | 0.66 | 0.00 | 94 | 995.5 |
| 20260906023204 | 64 | 26 | 1.0 | 1.0 | 0.00 | 0.66 | 0.00 | 94 | 995.4 |
| 20260906021704 | 65 | 30 | 1.0 | 1.0 | 0.00 | 0.66 | 0.00 | 94 | 995.4 |
| 20260906021203 | 65 | 26 | 0.0 | 1.0 | 0.00 | 0.66 | 0.00 | 93 | 995.5 |
| 20260906020703 | 65 | 20 | 1.0 | 1.0 | 0.00 | 0.66 | 0.00 | 93 | 995.5 |
| 20260906020205 | 65 | 21 | 1.0 | 1.0 | 0.00 | 0.66 | 0.00 | 93 | 995.5 |
| 20260906014703 | 66 | 24 | 1.0 | 2.0 | 0.00 | 0.66 | 0.00 | 93 | 995.4 |
| 20260906013704 | 66 | 24 | 1.0 | 2.0 | 0.00 | 0.66 | 0.00 | 93 | 995.5 |
| 20260906013205 | 66 | 25 | 1.0 | 2.0 | 0.00 | 0.66 | 0.00 | 93 | 995.4 |
| 20260906011705 | 67 | 9 | 2.0 | 2.0 | 0.00 | 0.66 | 0.00 | 92 | 995.1 |
| 20260906010704 | 67 | 2 | 1.0 | 1.0 | 0.00 | 0.66 | 0.00 | 92 | 995.1 |
| 20260906010204 | 67 | 26 | 0.0 | 1.0 | 0.00 | 0.66 | 0.00 | 92 | 995.0 |
| 20260906004703 | 68 | 11 | 1.0 | 2.0 | 0.00 | 0.66 | 0.00 | 91 | 994.9 |
| 20260906004203 | 68 | 22 | 1.0 | 3.0 | 0.00 | 0.66 | 0.00 | 91 | 994.9 |
| 20260906001703 | 70 | 13 | 2.0 | 3.0 | 0.00 | 0.66 | 0.00 | 89 | 995.0 |
| 20260906001203 | 70 | 5 | 1.0 | 3.0 | 0.00 | 0.66 | 0.00 | 89 | 995.0 |
| 20260906000204 | 71 | 15 | 1.0 | 8.0 | 0.00 | 0.66 | 0.00 | 88 | 994.9 |
| 20260905234705 | 72 | 5 | 3.0 | 7.0 | 0.00 | 0.66 | 0.00 | 86 | 995.1 |
| 20260905234205 | 72 | 5 | 3.0 | 7.0 | 0.00 | 0.66 | 0.00 | 85 | 995.2 |
| 20260905233703 | 72 | 356 | 3.0 | 7.0 | 0.00 | 0.66 | 0.00 | 84 | 995.2 |
| 20260905233203 | 73 | 32 | 2.0 | 6.0 | 0.00 | 0.66 | 0.00 | 83 | 995.1 |
| 20260905231704 | 73 | 351 | 3.0 | 6.0 | 0.00 | 0.66 | 0.00 | 83 | 995.2 |
| 20260905231204 | 73 | 31 | 3.0 | 6.0 | 0.00 | 0.66 | 0.00 | 83 | 995.1 |
| 20260905230704 | 73 | 352 | 3.0 | 6.0 | 0.00 | 0.66 | 0.00 | 82 | 995.1 |
| 20260905230204 | 74 | 4 | 3.0 | 8.0 | 0.00 | 0.66 | 0.00 | 81 | 995.1 |
| 20260905224204 | 74 | 7 | 3.0 | 7.0 | 0.00 | 0.66 | 0.00 | 77 | 994.9 |
| 20260905223203 | 74 | 30 | 3.0 | 6.0 | 0.00 | 0.66 | 0.00 | 77 | 994.9 |
| 20260905221703 | 74 | 346 | 4.0 | 7.0 | 0.00 | 0.66 | 0.00 | 76 | 995.0 |
| 20260905221203 | 74 | 3 | 3.0 | 9.0 | 0.00 | 0.66 | 0.00 | 76 | 995.0 |
| 20260905220203 | 74 | 19 | 3.0 | 9.0 | 0.00 | 0.66 | 0.00 | 76 | 995.0 |
| 20260905214704 | 74 | 10 | 3.0 | 7.0 | 0.00 | 0.66 | 0.00 | 76 | 994.9 |
| 20260905213704 | 74 | 11 | 2.0 | 8.0 | 0.00 | 0.66 | 0.00 | 78 | 994.9 |
| 20260905213204 | 74 | 62 | 3.0 | 8.0 | 0.00 | 0.66 | 0.00 | 78 | 994.9 |
| 20260905211703 | 75 | 29 | 2.0 | 7.0 | 0.00 | 0.66 | 0.00 | 77 | 994.9 |
| 20260905210703 | 74 | 68 | 2.0 | 9.0 | 0.00 | 0.66 | 0.00 | 78 | 994.8 |
| 20260905210203 | 74 | 6 | 3.0 | 9.0 | 0.00 | 0.66 | 0.00 | 78 | 994.8 |
| 20260905204704 | 75 | 51 | 2.0 | 6.0 | 0.00 | 0.66 | 0.00 | 77 | 994.8 |
| 20260905204204 | 75 | 33 | 3.0 | 7.0 | 0.00 | 0.66 | 0.00 | 77 | 994.7 |
| 20260905203703 | 75 | 66 | 3.0 | 7.0 | 0.00 | 0.66 | 0.00 | 77 | 994.8 |
| 20260905203204 | 75 | 50 | 3.0 | 6.0 | 0.00 | 0.66 | 0.00 | 76 | 994.6 |
| 20260905201204 | 74 | 72 | 3.0 | 6.0 | 0.00 | 0.66 | 0.00 | 78 | 995.0 |
| 20260905200704 | 74 | 57 | 2.0 | 8.0 | 0.00 | 0.66 | 0.00 | 77 | 995.0 |
| 20260905200203 | 74 | 23 | 3.0 | 8.0 | 0.00 | 0.66 | 0.00 | 78 | 995.0 |
| 20260905194705 | 74 | 358 | 3.0 | 7.0 | 0.00 | 0.66 | 0.00 | 80 | 994.8 |
| 20260905194204 | 74 | 346 | 2.0 | 7.0 | 0.00 | 0.66 | 0.00 | 81 | 994.9 |
| 20260905193703 | 73 | 23 | 2.0 | 7.0 | 0.00 | 0.66 | 0.00 | 82 | 994.9 |
| 20260905193204 | 73 | 351 | 3.0 | 7.0 | 0.00 | 0.66 | 0.00 | 82 | 994.8 |
| 20260905191703 | 72 | 57 | 2.0 | 8.0 | 0.00 | 0.66 | 0.00 | 85 | 995.0 |
| 20260905191204 | 72 | 74 | 3.0 | 8.0 | 0.00 | 0.66 | 0.00 | 85 | 995.0 |
| 20260905190704 | 72 | 67 | 3.0 | 7.0 | 0.00 | 0.66 | 0.00 | 84 | 995.0 |
| 20260905190205 | 73 | 51 | 3.0 | 6.0 | 0.00 | 0.66 | 0.00 | 84 | 995.1 |
| 20260905184704 | 72 | 10 | 2.0 | 9.0 | 0.00 | 0.66 | 0.00 | 86 | 995.2 |
| 20260905183704 | 72 | 61 | 3.0 | 8.0 | 0.00 | 0.66 | 0.00 | 86 | 995.1 |
| 20260905183204 | 72 | 1 | 3.0 | 8.0 | 0.00 | 0.66 | 0.00 | 86 | 995.1 |
| 20260905181705 | 71 | 29 | 2.0 | 7.0 | 0.00 | 0.66 | 0.00 | 88 | 995.1 |
| 20260905181204 | 71 | 81 | 3.0 | 7.0 | 0.00 | 0.66 | 0.00 | 87 | 995.0 |
| 20260905180704 | 72 | 82 | 2.0 | 7.0 | 0.00 | 0.66 | 0.00 | 86 | 995.0 |
| 20260905174705 | 71 | 61 | 3.0 | 8.0 | 0.00 | 0.66 | 0.00 | 88 | 995.1 |
| 20260905174204 | 72 | 67 | 3.0 | 8.0 | 0.00 | 0.66 | 0.00 | 88 | 995.1 |
| 20260905173704 | 72 | 32 | 2.0 | 5.0 | 0.00 | 0.66 | 0.00 | 88 | 995.1 |
| 20260905173203 | 71 | 55 | 2.0 | 6.0 | 0.00 | 0.66 | 0.00 | 89 | 995.0 |
| 20260905170205 | 71 | 29 | 2.0 | 6.0 | 0.00 | 0.66 | 0.00 | 89 | 995.3 |
| 20260905164203 | 71 | 40 | 2.0 | 6.0 | 0.00 | 0.66 | 0.00 | 91 | 995.2 |
| 20260905163703 | 71 | 59 | 3.0 | 5.0 | 0.00 | 0.66 | 0.00 | 90 | 995.2 |
| 20260905163205 | 71 | 60 | 2.0 | 7.0 | 0.00 | 0.66 | 0.00 | 90 | 995.1 |
| 20260905161704 | 71 | 48 | 2.0 | 5.0 | 0.00 | 0.66 | 0.00 | 90 | 995.1 |
| 20260905161203 | 71 | 33 | 2.0 | 5.0 | 0.00 | 0.66 | 0.00 | 90 | 995.0 |
| 20260905160705 | 71 | 53 | 2.0 | 5.0 | 0.00 | 0.66 | 0.00 | 90 | 995.0 |
| 20260905160204 | 72 | 45 | 2.0 | 7.0 | 0.00 | 0.66 | 0.00 | 89 | 994.9 |
| 20260905154704 | 72 | 59 | 2.0 | 6.0 | 0.00 | 0.66 | 0.00 | 89 | 994.8 |
| 20260905154204 | 71 | 82 | 3.0 | 6.0 | 0.00 | 0.66 | 0.00 | 91 | 994.9 |
| 20260905153703 | 71 | 351 | 2.0 | 5.0 | 0.00 | 0.66 | 0.00 | 92 | 994.9 |
| 20260905153204 | 71 | 61 | 2.0 | 7.0 | 0.00 | 0.66 | 0.00 | 92 | 994.8 |
| 20260905151704 | 71 | 52 | 2.0 | 5.0 | 0.00 | 0.66 | 0.00 | 92 | 994.5 |
| 20260905151204 | 70 | 34 | 3.0 | 5.0 | 0.00 | 0.66 | 0.00 | 92 | 994.4 |
| 20260905150704 | 70 | 68 | 2.0 | 5.0 | 0.00 | 0.66 | 0.00 | 92 | 994.4 |
| 20260905150204 | 70 | 54 | 3.0 | 5.0 | 0.00 | 0.66 | 0.00 | 92 | 994.3 |
| 20260905144204 | 70 | 65 | 2.0 | 6.0 | 0.00 | 0.66 | 0.00 | 93 | 994.1 |
| 20260905143703 | 70 | 66 | 2.0 | 6.0 | 0.00 | 0.66 | 0.00 | 93 | 994.1 |
| 20260905143205 | 70 | 77 | 2.0 | 5.0 | 0.00 | 0.66 | 0.00 | 94 | 994.1 |
| 20260905141705 | 69 | 65 | 3.0 | 3.0 | 0.00 | 0.66 | 0.00 | 95 | 994.2 |
| 20260905140704 | 69 | 68 | 2.0 | 3.0 | 0.00 | 0.66 | 0.00 | 95 | 994.4 |
| 20260905140203 | 69 | 49 | 1.0 | 6.0 | 0.00 | 0.66 | 0.00 | 95 | 994.5 |
| 20260905134703 | 69 | 68 | 2.0 | 6.0 | 0.00 | 0.66 | 0.00 | 95 | 994.1 |
| 20260905133704 | 69 | 58 | 2.0 | 3.0 | 0.00 | 0.66 | 0.00 | 95 | 994.1 |